Regional Weather Roundup
Issued by NWS Midland/Odessa, TX

Skip options and go directly to product.
Home | Oldest Version | Previous Version | Current Version | All | Graphics & Text | Save Text | Print | Product List | Glossary On

Skip product version selection by date and time.   
643
ASUS44 KMAF 010810
RWRMAF
MIDLAND AREA WEATHER ROUNDUP
NATIONAL WEATHER SERVICE MIDLAND TX
300 AM CDT WED OCT 01 2014

...IN SOUTHWEST TEXAS AND SOUTHEAST NEW MEXICO...

CITY           SKY/WX    TMP DP  RH WIND       PRES   REMARKS
ALPINE         PTCLDY    63  55  76 W7        29.98R
ANDREWS        FAIR      69  63  82 S6        29.84S
ARTESIA        NOT AVBL
BIG SPRING     CLEAR     74  64  70 SE10      29.84S
CARLSBAD       CLEAR     63  52  67 S6        29.82S
DRYDEN           N/A     71  66  84 N8        29.79S
FORT STOCKTON  PTCLDY    69  62  78 S7        29.82S
GUAD PASS      CLEAR     63  45  51 SW16      29.97F
HOBBS          CLEAR     63  54  72 S6        29.86S
MARFA          CLEAR     57  54  88 N6        29.97S
MIDLAND AIRPK  NOT AVBL
MIDLAND INTL   CLEAR     72  63  73 S8        29.82S
ODESSA         CLEAR     70  63  78 S6        29.83S
PECOS          PTCLDY    66  61  83 W6        29.80S
PRESIDIO       FAIR      75  59  57 N9        29.81S
SEMINOLE       CLEAR     63  60  88 CALM      29.85R
SNYDER         PTCLDY    70  63  78 S10       29.81S
WINK           CLEAR     70  64  81 SE7       29.80R
$$
...OTHER STATIONS IN TEXAS...

CITY           SKY/WX    TMP DP  RH WIND       PRES   REMARKS
ABILENE        CLEAR     77  61  57 S16       29.78S
AMARILLO       CLEAR     60  44  55 SW10      29.79S
AUSTIN         MOCLDY    74  73  97 S6        29.81S
BROWNSVILLE    CLEAR     77  77 100 S5        29.79F
CORPUS CHRISTI MOCLDY    76  75  97 S5        29.78S
DALLAS FTW     CLEAR     77  69  76 S10       29.78S
DEL RIO        CLEAR     73  67  81 E9        29.78S
EL PASO        CLEAR     68  38  33 SW5       29.89S
HOUSTON INT    MOCLDY    75  75 100 CALM      29.81R
LUBBOCK        CLEAR     64  54  69 SW10      29.80S
SAN ANGELO     PTCLDY    74  62  66 S7        29.80S
SAN ANTONIO    CLOUDY    77  73  87 S12       29.82S
WACO           CLEAR     75  70  84 S10       29.81R
WICHITA FALLS  NOT AVBL
$$
...OTHER LOCATIONS IN NEW MEXICO...

CITY           SKY/WX    TMP DP  RH WIND       PRES   REMARKS
ALAMAGORDO     PTCLDY    57  39  51 S9        29.90R
ALBUQUERQUE    CLEAR     54  33  45 CALM      29.96S
CANNON AFB     CLEAR     60  42  50 NW12      29.86R
CLOVIS           N/A     55  43  62 W10       29.87S
HOLLOMAN AFB   PTCLDY    59  42  53 SE8       29.88R
ROSWELL        CLEAR     57  47  69 NE8       29.83R
RUIDOSO        CLEAR     50  30  46 CALM      30.04S
SANTA FE       CLEAR     48  31  51 N12       29.99R
TRUTH OR CONSE CLEAR     61  36  39 NW9       29.92S
TUCUMCARI      CLEAR     55  43  63 W8        29.83R
$$

USA.gov is the U.S. government's official web portal to all federal, state and local government web resources and services.